User: anonymous   Login
Location: Wiler
(46.4041°N, 7.7840°E)
Time: 02:38:42
(UTC+00:00)
Language:

Cosmos 2360 Rocket - Orbit

View from above orbital plane
View from above orbital plane
View from above satellite
View from above satellite

Ground track
Ground track

The orbit data is extracted from the following two-line orbital elements,

1 25407U 98045B   20192.44303807 +.00000281 +00000-0 +16702-3 0  9997
2 25407 071.0098 209.2946 0009721 294.2363 065.7744 14.15801727134338
Epoch (UTC): 10 July 2020 10:37:58
Eccentricity: 0.0009721
inclination: 71.0098°
perigee height: 832 km
apogee height: 846 km
right ascension of ascending node: 209.2946°
argument of perigee: 294.2363°
revolutions per day: 14.15801727
mean anomaly at epoch: 65.7744°
orbit number at epoch: 13433

The dashed part of the orbit path shows where the satellite is in the earth's shadow,  

DLR